STARLINK-4181, 52882

Orbit data source: Space-Track

STARLINK-4181, 52882 is a payload satellite owned by SpaceX/Seattle (US) in LEO that was launched on Fri, 17 Jun 2022 UTC via an FALCON 9 launch vehicle from the Air Force Eastern Test Range (AFETR). Payload-class satellites include a variety of spacecraft equipped with specific instruments for various scientific and technological missions. These include communications satellites like Starlink; space stations such as the ISS; scientific satellites like the Hubble; Earth observation satellites from companies like Planet Labs, Umbra, and HawkEye 360; GPS; miniature CubeSats for education and research; and military/defense satellites.

Loading next visibility...
Identifier
52882, 2022-062BE
Orbit
LEO
Country
Flag of USUS
Related business
Manufacturer
SpaceX/Seattle
Mission
Operational Commercial Communications
Bus & Motor
STARLINK, Unknown motor
Mass
297 kg wet, ~275 kg dry
Launch date (UTC)
2022-06-17 (4 years ago)
Launch vehicle
FALCON 9
Launch site
Air Force Eastern Test Range (AFETR)
Object type
Payload
Rocket body
Debris
Shape & HBR
Box + 1 Pan, 10.1 m
Radar Cross Section
13.562 m², Large (>1 m²)

Expand to show TLE details & history
Last TLE update: 3 days ago

TLE from 3 days ago
0 STARLINK-4181
1 52882U 22062BE  26170.68064983 -.00000194  00000-0  59118-5 0  9991
2 52882  53.1608 275.7271 0001297  86.3240 273.7900 15.08836906221473
Epoch: 2026-06-19T16:20Z
TLE epoch observation values (Epoch: 2026-06-19T16:20:08.145Z)
Latitude
0.00001°
Longitude
122.78702°
Altitude
540.585 km
Speed
7.593 km/s
True Right ascension
18h 22m 54s
True Declination
0° 00' 00"
Sunlit
Object was in full shadow at epoch
Visualization orbit readout
Latitude
Unknown
Longitude
Unknown
Altitude
Unknown
Speed
Unknown
Apparent Right ascension
Unknown
Apparent Declination
Unknown
Sunlit
N/A
Visualization observer readout
Local Sidereal Time
21:35:54
Azimuth
Unknown
Elevation
Unknown
Doppler factor
Unknown
Orbital elements
Apogee altitude
540.904 km
Perigee altitude
539.11 km
Semi-major axis
6,918.144 km
Eccentricity
0.00013
Inclination
53.1608°
RAAN
275.7271°
Arg. of periapsis
86.324°
True anomaly
273.77517°
Mean anomaly
273.79°
Eccentric anomaly
273.78258°
Mean motion
3.77189 °/min
Orbital period
95.44 mins
BSTAR
0.0000059118
Loading maneuver chart data...
Computing Atmospheric mass density...
Loading historical data...
Loading historical data...
Loading historical data...
Loading historical data...
Loading historical data...
Loading historical data...
Loading historical data...

Documentation

Showing up to 5 results
|